EW5956 Weather Reports


time (UTC)temp
F
wind
direction
speed
knots
gust
knots
rain 1hr
in
rain 24hr
in
rain mn
in
humidity
%
barometer
mb
20260504020605 55 246 0.9 0.9 0.00 0.00 0.00 77 1017.8
20260504020113 55 242 0.0 0.9 0.00 0.00 0.00 76 1017.8
20260504015606 55 253 0.9 1.7 0.00 0.00 0.00 76 1017.6
20260504015105 55 232 0.0 0.9 0.00 0.00 0.00 75 1017.6
20260504014607 55 238 0.0 0.9 0.00 0.00 0.00 74 1017.6
20260504014105 55 213 0.9 1.7 0.00 0.00 0.00 74 1017.6
20260504013605 55 205 0.9 1.7 0.00 0.00 0.00 75 1017.6
20260504012605 55 198 0.9 0.9 0.00 0.00 0.00 75 1017.5
20260504012105 55 227 0.0 0.9 0.00 0.00 0.00 76 1017.4
20260504011606 55 219 0.0 0.9 0.00 0.00 0.00 78 1017.6
20260504011106 55 211 0.9 1.7 0.00 0.00 0.00 79 1017.3
20260504010606 55 227 0.0 0.9 0.00 0.00 0.00 80 1017.6
20260504010114 56 233 0.0 0.0 0.00 0.00 0.00 79 1017.3
20260504005605 56 231 0.9 1.7 0.00 0.00 0.00 78 1017.3
20260504005105 56 225 0.9 0.9 0.00 0.00 0.00 79 1017.3
20260504004605 55 236 0.9 0.9 0.00 0.00 0.00 79 1017.3
20260504004106 56 265 0.9 2.6 0.00 0.00 0.00 78 1017.4
20260504003605 56 250 0.9 1.7 0.00 0.00 0.00 76 1017.6
20260504003105 57 239 0.9 1.7 0.00 0.00 0.00 75 1017.3
20260504002606 57 246 0.0 0.9 0.00 0.00 0.00 75 1017.3
20260504002106 57 239 0.0 0.9 0.00 0.00 0.00 75 1017.3
20260504001605 57 245 0.9 1.7 0.00 0.00 0.00 75 1017.3
20260504001105 56 254 0.9 0.9 0.00 0.00 0.00 76 1017.2
20260504000605 56 229 0.0 0.9 0.00 0.00 0.00 75 1017.3
20260504000114 56 230 0.0 0.9 0.00 0.00 0.00 74 1017.3
20260503235605 56 216 0.9 0.9 0.00 0.00 0.00 74 1017.3
20260503235105 56 227 0.0 0.9 0.00 0.00 0.00 75 1017.0
20260503234605 57 227 0.9 0.9 0.00 0.00 0.00 75 1017.1
20260503234105 56 227 0.0 0.9 0.00 0.00 0.00 73 1016.9
20260503233605 57 227 0.0 0.9 0.00 0.00 0.00 72 1016.9
20260503233105 57 215 0.9 0.9 0.00 0.00 0.00 70 1016.9
20260503232605 58 233 0.9 1.7 0.00 0.00 0.00 69 1016.9
20260503232105 60 234 0.9 1.7 0.00 0.00 0.00 67 1016.9
20260503231606 59 267 1.7 1.7 0.00 0.00 0.00 68 1017.0
20260503231105 58 233 0.0 0.9 0.00 0.00 0.00 67 1017.0
20260503230606 58 230 0.0 0.9 0.00 0.00 0.00 67 1016.7
20260503230114 58 215 0.9 1.7 0.00 0.00 0.00 67 1016.7
20260503225605 58 215 0.9 1.7 0.00 0.00 0.00 68 1016.9
20260503225105 59 225 0.0 0.9 0.00 0.00 0.00 66 1016.8
20260503224605 60 225 0.9 0.9 0.00 0.00 0.00 64 1016.6
20260503224108 61 238 0.9 0.9 0.00 0.00 0.00 63 1016.8
20260503222605 61 184 1.7 2.6 0.00 0.00 0.00 62 1016.6
20260503222105 60 109 0.9 2.6 0.00 0.00 0.00 66 1016.8
20260503221605 58 214 0.9 2.6 0.00 0.00 0.00 70 1016.6
20260503221105 58 219 0.0 0.9 0.00 0.00 0.00 69 1016.9
20260503220605 58 219 0.0 0.9 0.00 0.00 0.00 68 1016.9
20260503215606 59 238 0.9 0.9 0.00 0.00 0.00 67 1016.9
20260503215105 60 237 0.9 1.7 0.00 0.00 0.00 65 1016.9
20260503214605 59 219 0.9 0.9 0.00 0.00 0.00 67 1016.8
20260503214105 60 244 0.9 1.7 0.00 0.00 0.00 67 1016.6
20260503213105 61 234 0.9 0.9 0.00 0.00 0.00 63 1016.9
20260503212606 62 247 0.0 0.9 0.00 0.00 0.00 59 1016.8
20260503212105 61 266 0.9 1.7 0.00 0.00 0.00 59 1016.4
20260503211605 61 221 0.0 0.9 0.00 0.00 0.00 60 1016.8
20260503211105 61 219 0.9 0.9 0.00 0.00 0.00 59 1016.6
20260503210606 60 225 0.0 0.0 0.00 0.00 0.00 61 1016.6
20260503210114 61 225 0.0 0.9 0.00 0.00 0.00 60 1016.6
20260503205605 61 226 0.0 0.9 0.00 0.00 0.00 61 1016.8
20260503205105 62 228 0.0 0.9 0.00 0.00 0.00 59 1016.6
20260503204606 64 225 0.0 1.7 0.00 0.00 0.00 56 1016.8
20260503204105 64 269 0.9 1.7 0.00 0.00 0.00 54 1016.6
20260503203605 62 319 1.7 1.7 0.00 0.00 0.00 55 1016.6
20260503203105 62 206 0.9 1.7 0.00 0.00 0.00 56 1016.6
20260503202604 63 184 0.9 1.7 0.00 0.00 0.00 55 1016.9
20260503202105 64 232 0.0 0.0 0.00 0.00 0.00 54 1016.8
20260503201605 64 242 0.9 0.9 0.00 0.00 0.00 52 1016.9
20260503200605 65 208 0.9 1.7 0.00 0.00 0.00 52 1016.9
20260503200113 64 154 0.9 1.7 0.00 0.00 0.00 52 1016.7
20260503195606 65 220 0.0 0.9 0.00 0.00 0.00 52 1016.7
20260503195106 66 235 0.0 1.7 0.00 0.00 0.00 51 1016.9
20260503194105 65 274 0.9 2.6 0.00 0.00 0.00 62 1016.9
20260503193605 65 273 2.6 5.2 0.00 0.00 0.00 62 1016.9
20260503193105 65 267 1.7 5.2 0.00 0.00 0.00 62 1017.1
20260503192605 64 267 1.7 2.6 0.00 0.00 0.00 62 1016.9
20260503192106 64 257 1.7 2.6 0.00 0.00 0.00 64 1017.1
20260503191606 64 243 0.9 1.7 0.00 0.00 0.00 63 1017.0
20260503191105 64 243 0.9 0.9 0.00 0.00 0.00 65 1016.9
20260503190605 64 231 0.0 0.0 0.00 0.00 0.00 54 1016.8
20260503190113 65 231 0.0 0.9 0.00 0.00 0.00 54 1016.9
20260503185605 66 219 0.9 0.9 0.00 0.00 0.00 54 1016.9
20260503185107 67 246 1.7 4.3 0.00 0.00 0.00 54 1016.6
20260503184607 67 272 2.6 4.3 0.00 0.00 0.00 55 1016.6
20260503184105 67 262 2.6 4.3 0.00 0.00 0.00 57 1016.5
20260503183605 67 253 1.7 1.7 0.00 0.00 0.00 55 1016.3
20260503183105 67 249 0.9 2.6 0.00 0.00 0.00 54 1016.4
20260503181105 68 256 2.6 6.1 0.00 0.00 0.00 54 1016.3
20260503180605 68 270 3.5 5.2 0.00 0.00 0.00 53 1016.0
20260503180114 68 279 1.7 4.3 0.00 0.00 0.00 54 1016.3
20260503175606 68 255 1.7 2.6 0.00 0.00 0.00 55 1016.3
20260503175105 68 270 2.6 4.3 0.00 0.00 0.00 55 1016.3
20260503174605 69 262 2.6 4.3 0.00 0.00 0.00 55 1015.9
20260503174105 69 257 2.6 6.1 0.00 0.00 0.00 55 1015.9
20260503173606 70 269 4.3 6.1 0.00 0.00 0.00 53 1015.9
20260503173105 70 258 4.3 7.0 0.00 0.00 0.00 49 1015.9
20260503172605 71 248 4.3 7.0 0.00 0.00 0.00 49 1015.9
20260503172106 71 258 3.5 6.1 0.00 0.00 0.00 50 1015.9
20260503171105 71 251 2.6 4.3 0.00 0.00 0.00 52 1015.9
20260503160113 72 223 7.0 10.4 0.00 0.00 0.00 48 1015.9
20260503150605 71 262 10.4 14.8 0.00 0.00 0.00 50 1015.9
20260503150113 72 238 11.3 15.6 0.00 0.00 0.00 48 1015.9
20260503131105 71 251 12.2 19.1 0.00 0.00 0.00 47 1016.9
20260503130605 71 231 12.2 14.8 0.00 0.00 0.00 46 1016.9
20260503130113 72 249 13.9 18.2 0.00 0.00 0.00 46 1016.9
20260503120113 73 232 10.4 13.9 0.00 0.00 0.00 42 1017.6
20260503110605 70 251 13.9 17.4 0.00 0.00 0.00 44 1017.8
20260503110114 71 256 7.0 13.9 0.00 0.00 0.00 44 1017.7
20260503100114 70 237 5.2 8.7 0.00 0.00 0.00 55 1018.5
20260503090114 72 244 7.0 10.4 0.00 0.00 0.00 46 1018.6
20260503081106 70 258 3.5 7.0 0.00 0.00 0.00 47 1018.9
20260503080605 70 260 2.6 7.0 0.00 0.00 0.00 48 1018.6
20260503072605 67 265 4.3 6.1 0.00 0.00 0.00 52 1019.0
20260503072106 66 277 3.5 6.1 0.00 0.00 0.00 51 1019.0
20260503071105 65 270 4.3 6.1 0.00 0.00 0.00 52 1019.0
20260503070114 65 250 4.3 6.1 0.00 0.00 0.00 52 1019.0
20260503060114 62 216 0.9 0.9 0.00 0.00 0.00 61 1019.0
20260503055107 63 236 0.0 0.0 0.00 0.00 0.00 68 1018.6
20260503054606 63 236 0.0 0.0 0.00 0.00 0.00 68 1018.9
20260503054106 60 236 0.0 0.0 0.00 0.00 0.00 68 1018.9
20260503053604 58 236 0.0 0.9 0.00 0.00 0.00 69 1018.8
20260503053104 58 238 0.9 1.7 0.00 0.00 0.00 69 1018.6
20260503052605 58 220 0.0 0.9 0.00 0.00 0.00 78 1018.8
20260503051604 55 243 0.0 0.9 0.00 0.00 0.00 78 1018.6
20260503051105 53 246 0.9 1.7 0.00 0.00 0.00 78 1018.6
20260503050605 53 242 0.9 1.7 0.00 0.00 0.00 79 1018.7
20260503050114 53 231 0.0 0.9 0.00 0.00 0.00 78 1018.7
20260503045605 53 213 0.9 0.9 0.00 0.00 0.00 79 1019.0
20260503045105 53 249 0.0 0.0 0.00 0.00 0.00 82 1018.6
20260503044605 52 249 0.0 0.0 0.00 0.00 0.00 83 1018.9
20260503044106 50 251 0.9 1.7 0.00 0.00 0.00 84 1018.7
20260503043605 50 246 0.9 1.7 0.00 0.00 0.00 84 1019.0
20260503043105 50 251 0.9 1.7 0.00 0.00 0.00 84 1018.7
20260503042605 50 247 0.9 1.7 0.00 0.00 0.00 83 1018.7
20260503042105 50 243 0.9 0.9 0.00 0.00 0.00 83 1018.6
20260503041605 50 242 0.0 0.9 0.00 0.00 0.00 84 1018.6
20260503041106 50 229 0.0 0.9 0.00 0.00 0.00 84 1018.5
20260503040606 50 247 0.9 1.7 0.00 0.00 0.00 84 1018.6
20260503040114 49 242 0.0 2.6 0.00 0.00 0.00 84 1018.6
20260503035605 49 269 1.7 2.6 0.00 0.00 0.00 83 1018.6
20260503034605 49 259 0.9 1.7 0.00 0.00 0.00 83 1018.6
20260503034105 49 230 0.0 0.9 0.00 0.00 0.00 83 1018.5
20260503033605 49 228 0.0 0.9 0.00 0.00 0.00 83 1018.3
20260503033105 49 228 0.0 0.9 0.00 0.00 0.00 83 1018.5
20260503032605 49 231 0.0 0.9 0.00 0.00 0.00 83 1018.6
20260503032105 49 223 0.9 1.7 0.00 0.00 0.00 83 1018.6
20260503031606 50 233 0.9 0.9 0.00 0.00 0.00 82 1018.6
20260503031105 50 218 0.9 1.7 0.00 0.00 0.00 82 1018.6
20260503030606 50 221 0.9 1.7 0.00 0.00 0.00 82 1018.8
20260503030114 51 207 0.9 1.7 0.00 0.00 0.00 82 1018.7
20260503025605 51 236 0.9 1.7 0.00 0.00 0.00 81 1018.6
20260503025105 52 272 0.9 1.7 0.00 0.00 0.00 80 1018.8
20260503024605 52 224 0.9 1.7 0.00 0.00 0.00 79 1018.6
20260503024104 53 222 0.9 2.6 0.00 0.00 0.00 79 1018.6
20260503023605 52 141 1.7 2.6 0.00 0.00 0.00 79 1018.8
20260503023105 52 229 0.0 0.0 0.00 0.00 0.00 80 1018.7
20260503022606 52 229 0.0 0.0 0.00 0.00 0.00 80 1019.0
20260503022105 51 229 0.0 0.0 0.00 0.00 0.00 80 1019.0
20260503021105 51 229 0.0 0.0 0.00 0.00 0.00 80 1019.0